Weather History for Fredericksburg, VA

Change the Weather History Date:

Sunday, December 11, 2011

  Actual Average (KNYG) Record (KNYG)
Temperature  
Mean Temperature 34 °F -  
Max Temperature 42 °F 46 °F 59 °F (2012)
Min Temperature 26 °F 31 °F 24 °F (2010)
Degree Days  
Heating Degree Days 31    
Moisture  
Dew Point 22 °F    
Average Humidity 64    
Maximum Humidity 93    
Minimum Humidity 31    
Precipitation  
Precipitation 0.00 in - - ()
Sea Level Pressure  
Sea Level Pressure 30.62 in    
Wind  
Wind Speed 1 mph (NE)    
Max Wind Speed 7 mph    
Max Gust Speed -    
Visibility 10 miles    
Events      
Averages and records for this station are not official NWS values.
T = Trace of Precipitation, MM = Missing Value Source: NWS Daily Summary

Daily Weather History Graph

Daily Weather History Graph

Search for Another Location

Airport:

Trip Planner

Search our weather history database for the weather conditions in past years. The results will help you decide how hot, cold, wet, or windy it might be!

Date:

Astronomy

Dec. 11, 2011 Rise Set
Actual Time 7:16 AM EST 4:49 PM EST
Civil Twilight 6:46 AM EST 5:19 PM EST
Nautical Twilight 6:13 AM EST 5:52 PM EST
Astronomical Twilight 5:41 AM EST 6:24 PM EST
Moon 5:57 PM EST (12/11) 8:02 AM EST (12/11)
Length of Visible Light 10h 32m
Length of Day
9h 33m
Full, 99% of the Moon is Illuminated
Dec 11
Full
Dec 17
Last Quarter
Dec 24
New
Jan 1
First Quarter
Jan 9
Full

Hourly Weather History & Observations

Time (EST) Temp. Windchill Dew Point Humidity Pressure Visibility Wind Dir Wind Speed Gust Speed Precip Events Conditions
12:15 AM 30.2 °F - 23.0 °F 75% 30.54 in 10.0 mi Calm Calm - N/A   Clear
12:35 AM 30.2 °F - 24.8 °F 80% 30.54 in 10.0 mi Calm Calm - N/A   Clear
12:55 AM 30.2 °F - 21.2 °F 69% 30.54 in 10.0 mi Calm Calm - N/A   Clear
1:15 AM 30.2 °F - 23.0 °F 75% 30.55 in 10.0 mi Calm Calm - N/A   Clear
1:35 AM 30.2 °F - 23.0 °F 75% 30.55 in 10.0 mi Calm Calm - N/A   Clear
1:55 AM 28.4 °F - 24.8 °F 86% 30.56 in 10.0 mi Calm Calm - N/A   Clear
2:15 AM 28.4 °F 24.6 °F 24.8 °F 86% 30.56 in 10.0 mi NNW 3.5 mph - N/A   Clear
2:35 AM 28.4 °F 24.6 °F 23.0 °F 80% 30.57 in 10.0 mi NNW 3.5 mph - N/A   Clear
2:55 AM 28.4 °F - 23.0 °F 80% 30.57 in 10.0 mi Calm Calm - N/A   Clear
3:35 AM 28.4 °F - 23.0 °F 80% 30.58 in 10.0 mi Calm Calm - N/A   Clear
3:55 AM 28.4 °F - 23.0 °F 80% 30.58 in 10.0 mi Calm Calm - N/A   Clear
4:15 AM 28.4 °F - 24.8 °F 86% 30.58 in 10.0 mi Calm Calm - N/A   Clear
4:35 AM 28.4 °F - 24.8 °F 86% 30.58 in 10.0 mi Calm Calm - N/A   Clear
4:55 AM 26.6 °F - 24.8 °F 93% 30.59 in 10.0 mi Calm Calm - N/A   Clear
5:15 AM 26.6 °F - 24.8 °F 93% 30.60 in 10.0 mi Calm Calm - N/A   Clear
5:35 AM 26.6 °F - 24.8 °F 93% 30.60 in 10.0 mi Calm Calm - N/A   Clear
5:55 AM 26.6 °F - 24.8 °F 93% 30.61 in 10.0 mi Calm Calm - N/A   Clear
6:15 AM 26.6 °F - 23.0 °F 86% 30.62 in 10.0 mi Calm Calm - N/A   Clear
6:35 AM 26.6 °F - 23.0 °F 86% 30.62 in 10.0 mi Calm Calm - N/A   Clear
6:55 AM 26.6 °F - 23.0 °F 86% 30.63 in 10.0 mi Calm Calm - N/A   Clear
7:15 AM 26.6 °F - 24.8 °F 93% 30.64 in 10.0 mi Calm Calm - N/A   Clear
7:35 AM 26.6 °F - 24.8 °F 93% 30.65 in 10.0 mi Calm Calm - N/A   Clear
7:55 AM 26.6 °F - 24.8 °F 93% 30.65 in 10.0 mi Calm Calm - N/A   Clear
8:15 AM 28.4 °F - 24.8 °F 86% 30.66 in 10.0 mi Calm Calm - N/A   Clear
8:35 AM 30.2 °F - 26.6 °F 86% 30.67 in 10.0 mi Calm Calm - N/A   Clear
8:55 AM 32.0 °F - 24.8 °F 75% 30.68 in 10.0 mi Calm Calm - N/A   Clear
9:15 AM 33.8 °F - 23.0 °F 65% 30.68 in 10.0 mi Calm Calm - N/A   Clear
9:35 AM 33.8 °F - 24.8 °F 70% 30.69 in 10.0 mi Calm Calm - N/A   Clear
9:55 AM 35.6 °F - 23.0 °F 60% 30.69 in 10.0 mi Calm Calm - N/A   Clear
10:15 AM 37.4 °F 34.9 °F 23.0 °F 56% 30.69 in 10.0 mi ENE 3.5 mph - N/A   Clear
10:35 AM 37.4 °F - 21.2 °F 52% 30.69 in 10.0 mi Calm Calm - N/A   Clear
10:55 AM 37.4 °F - 21.2 °F 52% 30.69 in 10.0 mi Calm Calm - N/A   Clear
11:15 AM 39.2 °F 37.0 °F 21.2 °F 49% 30.69 in 10.0 mi East 3.5 mph - N/A   Clear
11:35 AM 41.0 °F 38.0 °F 19.4 °F 42% 30.68 in 10.0 mi NNE 4.6 mph - N/A   Clear
11:55 AM 41.0 °F 36.4 °F 19.4 °F 42% 30.66 in 10.0 mi North 6.9 mph - N/A   Clear
12:15 PM 41.0 °F - 19.4 °F 42% 30.65 in 10.0 mi Calm Calm - N/A   Clear
12:35 PM 41.0 °F - 19.4 °F 42% 30.65 in 10.0 mi Calm Calm - N/A   Clear
12:55 PM 41.0 °F - 17.6 °F 39% 30.64 in 10.0 mi Calm Calm - N/A   Clear
1:15 PM 42.8 °F 41.1 °F 17.6 °F 36% 30.63 in 10.0 mi ENE 3.5 mph - N/A   Clear
1:35 PM 42.8 °F 41.1 °F 17.6 °F 36% 30.62 in 10.0 mi WNW 3.5 mph - N/A   Clear
1:55 PM 42.8 °F - 17.6 °F 36% 30.61 in 10.0 mi Calm Calm - N/A   Clear
2:15 PM 42.8 °F - 17.6 °F 36% 30.60 in 10.0 mi Calm Calm - N/A   Clear
2:35 PM 42.8 °F 40.1 °F 17.6 °F 36% 30.60 in 10.0 mi NE 4.6 mph - N/A   Clear
2:55 PM 42.8 °F - 17.6 °F 36% 30.60 in 10.0 mi Calm Calm - N/A   Clear
3:15 PM 42.8 °F 39.3 °F 15.8 °F 34% 30.60 in 10.0 mi East 5.8 mph - N/A   Clear
3:35 PM 42.8 °F 38.6 °F 17.6 °F 36% 30.60 in 10.0 mi East 6.9 mph - N/A   Clear
3:55 PM 42.8 °F 41.1 °F 14.0 °F 31% 30.60 in 10.0 mi ENE 3.5 mph - N/A   Clear
4:15 PM 42.8 °F - 17.6 °F 36% 30.61 in 10.0 mi Calm Calm - N/A   Clear
4:35 PM 41.0 °F - 14.0 °F 33% 30.61 in 10.0 mi Calm Calm - N/A   Clear
4:55 PM 41.0 °F - 15.8 °F 36% 30.61 in 10.0 mi Calm Calm - N/A   Clear
5:15 PM 37.4 °F - 23.0 °F 56% 30.61 in 10.0 mi Calm Calm - N/A   Clear
5:35 PM 35.6 °F - 21.2 °F 56% 30.61 in 10.0 mi Calm Calm - N/A   Clear
5:55 PM 33.8 °F - 23.0 °F 65% 30.61 in 10.0 mi Calm Calm - N/A   Clear
6:15 PM 33.8 °F - 23.0 °F 65% 30.61 in 10.0 mi Calm Calm - N/A   Clear
6:35 PM 32.0 °F - 21.2 °F 64% 30.61 in 10.0 mi Calm Calm - N/A   Clear
6:55 PM 32.0 °F - 23.0 °F 69% 30.61 in 10.0 mi Calm Calm - N/A   Clear
7:15 PM 32.0 °F - 21.2 °F 64% 30.61 in 10.0 mi Calm Calm - N/A   Clear
7:35 PM 32.0 °F - 21.2 °F 64% 30.62 in 10.0 mi Calm Calm - N/A   Clear
7:55 PM 32.0 °F - 23.0 °F 69% 30.62 in 10.0 mi Calm Calm - N/A   Clear
8:15 PM 30.2 °F - 23.0 °F 75% 30.62 in 10.0 mi Calm Calm - N/A   Clear
8:35 PM 30.2 °F - 23.0 °F 75% 30.63 in 10.0 mi Calm Calm - N/A   Scattered Clouds
8:55 PM 30.2 °F - 23.0 °F 75% 30.63 in 10.0 mi Calm Calm - N/A   Clear
9:15 PM 30.2 °F - 23.0 °F 75% 30.62 in 10.0 mi Calm Calm - N/A   Clear
9:35 PM 30.2 °F - 23.0 °F 75% 30.62 in 10.0 mi Calm Calm - N/A   Clear
9:55 PM 28.4 °F - 23.0 °F 80% 30.62 in 10.0 mi Calm Calm - N/A   Clear
10:15 PM 30.2 °F - 23.0 °F 75% 30.62 in 10.0 mi Calm Calm - N/A   Clear
10:35 PM 28.4 °F - 24.8 °F 86% 30.63 in 10.0 mi Calm Calm - N/A   Clear
10:55 PM 28.4 °F - 23.0 °F 80% 30.63 in 10.0 mi Calm Calm - N/A   Clear
11:15 PM 28.4 °F - 23.0 °F 80% 30.63 in 10.0 mi Calm Calm - N/A   Clear
11:35 PM 28.4 °F - 23.0 °F 80% 30.63 in 10.0 mi Calm Calm - N/A   Clear
11:55 PM 28.4 °F - 23.0 °F 80% 30.63 in 10.0 mi Calm Calm - N/A   Clear